Florennes, Belgium

3:02 AM CEST on September 23, 2017 (GMT +0200)
Florennes Air Base

Weather History for EBFS - December, 2012

Change the Weather History Date:

Friday, December 28, 2012

  Actual Average Record
Temperature  
Mean Temperature 44 °F -  
Max Temperature 48 °F 37 °F 52 °F (2015)
Min Temperature 40 °F 32 °F 14 °F (1996)
Degree Days  
Heating Degree Days 21    
Moisture  
Dew Point 41 °F    
Average Humidity 94    
Maximum Humidity 100    
Minimum Humidity 85    
Precipitation  
Precipitation 0.08 in - - ()
Sea Level Pressure  
Sea Level Pressure 30.19 in    
Wind  
Wind Speed 10 mph ()    
Max Wind Speed 16 mph    
Max Gust Speed -    
Visibility 5.9 miles    
Events Rain    
Averages and records for this station are not official NWS values.
T = Trace of Precipitation, MM = Missing Value Source: Averaged Metar Reports

Daily Weather History Graph

Daily Weather History Graph

Search for Another Location

Airport or City:

Trip Planner

Search our weather history database for the weather conditions in past years. The results will help you decide how hot, cold, wet, or windy it might be!

Date:

Astronomy

Dec. 28, 2012 Rise Set
Actual Time 8:40 AM CET 4:45 PM CET
Civil Twilight 8:02 AM CET 5:24 PM CET
Nautical Twilight 7:20 AM CET 6:05 PM CET
Astronomical Twilight 6:40 AM CET 6:45 PM CET
Moon 5:13 PM CET (12/28) 8:19 AM CET (12/28)
Length of Visible Light 9h 22m
Length of Day
8h 04m
Full, 100% of the Moon is Illuminated
Dec 28
Full
Jan 5
Last Quarter
Jan 11
New
Jan 19
First Quarter
Jan 27
Full

Hourly Weather History & Observations

Time (CET) Temp. Windchill Dew Point Humidity Pressure Visibility Wind Dir Wind Speed Gust Speed Precip Events Conditions
12:25 AM 41.0 °F 33.9 °F 39.2 °F 93% 30.06 in 6.2 mi WNW 12.7 mph - N/A Rain Light Rain Showers
1:00 AM 41 °F - 40 °F 92% 30.13 in 9 mi West 11.2 mph - - Rain Drizzle
1:25 AM 41.0 °F 34.3 °F 39.2 °F 93% 30.09 in 6.2 mi West 11.5 mph - N/A   Mostly Cloudy
2:16 AM 41.0 °F 35.8 °F 39.2 °F 93% 30.12 in 6.2 mi West 8.1 mph - N/A   Overcast
2:21 AM 41.0 °F 35.8 °F 39.2 °F 93% 30.12 in 6.2 mi West 8.1 mph - N/A   Overcast
2:25 AM 41.0 °F 36.4 °F 39.2 °F 93% 30.12 in 6.2 mi West 6.9 mph - N/A   Overcast
2:46 AM 41.0 °F 36.4 °F 39.2 °F 93% 30.15 in 6.2 mi West 6.9 mph - N/A   Mostly Cloudy
3:25 AM 41.0 °F 36.4 °F 39.2 °F 93% 30.15 in 6.2 mi West 6.9 mph - N/A   Overcast
3:31 AM 41.0 °F 35.8 °F 39.2 °F 93% 30.18 in 6.2 mi West 8.1 mph - N/A   Mostly Cloudy
3:36 AM 41.0 °F 35.8 °F 39.2 °F 93% 30.18 in 6.2 mi West 8.1 mph - N/A   Mostly Cloudy
3:41 AM 41.0 °F 35.2 °F 39.2 °F 93% 30.18 in 6.2 mi West 9.2 mph - N/A   Mostly Cloudy
3:46 AM 41.0 °F 35.2 °F 39.2 °F 93% 30.18 in 6.2 mi West 9.2 mph - N/A   Mostly Cloudy
4:00 AM 41 °F - 39 °F 89% 30.21 in 12 mi West 8.9 mph - -   Clear
4:25 AM 41.0 °F 35.2 °F 39.2 °F 93% 30.18 in 6.2 mi West 9.2 mph - N/A   Mostly Cloudy
4:31 AM 41.0 °F 35.2 °F 39.2 °F 93% 30.18 in 6.2 mi West 9.2 mph - N/A   Mostly Cloudy
5:25 AM 41.0 °F 35.8 °F 39.2 °F 93% 30.21 in 6.2 mi WSW 8.1 mph - N/A   Mostly Cloudy
5:51 AM 41.0 °F 34.7 °F 37.4 °F 87% 30.21 in 6.2 mi WSW 10.4 mph - N/A   Mostly Cloudy
5:56 AM 41.0 °F 34.7 °F 37.4 °F 87% 30.21 in 6.2 mi West 10.4 mph - N/A   Mostly Cloudy
6:06 AM 41.0 °F 34.7 °F 37.4 °F 87% 30.21 in 6.2 mi West 10.4 mph - N/A   Mostly Cloudy
6:11 AM 41.0 °F 34.7 °F 37.4 °F 87% 30.21 in 6.2 mi West 10.4 mph - N/A   Mostly Cloudy
6:25 AM 41.0 °F 35.2 °F 37.4 °F 87% 30.21 in 6.2 mi WSW 9.2 mph - N/A   Overcast
7:00 AM 41 °F - 38 °F 85% 30.27 in 13 mi West 6.7 mph - -   Clear
7:25 AM 41.0 °F 37.1 °F 37.4 °F 87% 30.24 in 6.2 mi WSW 5.8 mph - N/A   Mostly Cloudy
8:25 AM 41.0 °F 35.8 °F 39.2 °F 93% 30.24 in 6.2 mi SW 8.1 mph - N/A   Overcast
9:25 AM 41.0 °F 35.8 °F 39.2 °F 93% 30.24 in 6.2 mi SSW 8.1 mph - N/A   Mostly Cloudy
10:00 AM 41 °F - 39 °F 92% 30.30 in 8 mi SSW 11.2 mph - -   Mostly Cloudy
10:25 AM 41.0 °F 34.7 °F 39.2 °F 93% 30.27 in 6.2 mi SSW 10.4 mph - N/A   Mostly Cloudy
11:25 AM 42.8 °F 37.5 °F 41.0 °F 93% 30.24 in 6.2 mi SSW 9.2 mph - N/A Rain Light Rain Showers
11:45 AM 42.8 °F 37.5 °F 41.0 °F 93% 30.24 in 5.0 mi SSW 9.2 mph - N/A Rain Light Rain Showers
11:55 AM 42.8 °F 37.5 °F 41.0 °F 93% 30.24 in 3.7 mi SSW 9.2 mph - N/A Rain Light Rain Showers
12:00 PM 42.8 °F 37.0 °F 41.0 °F 93% 30.24 in 4.3 mi SSW 10.4 mph - N/A   Drizzle
12:25 PM 42.8 °F 37.0 °F 41.0 °F 93% 30.24 in 4.3 mi SSW 10.4 mph - N/A   Drizzle
1:00 PM 43 °F - 42 °F 92% 30.27 in 7 mi South 11.2 mph - - Rain Drizzle
1:25 PM 42.8 °F 35.4 °F 41.0 °F 93% 30.24 in 6.2 mi SSW 15.0 mph - N/A   Drizzle
2:25 PM 42.8 °F 35.1 °F 42.8 °F 100% 30.21 in 6.2 mi SSW 16.1 mph - N/A Rain Light Rain
2:55 PM 42.8 °F 35.8 °F 41.0 °F 93% 30.21 in 6.2 mi SSW 13.8 mph - N/A   Unknown
3:21 PM 42.8 °F 35.4 °F 42.8 °F 100% 30.18 in - SSW 15.0 mph - N/A   Drizzle
3:25 PM 42.8 °F 35.4 °F 42.8 °F 100% 30.18 in 3.1 mi SSW 15.0 mph - N/A   Drizzle
4:00 PM 43 °F - 42 °F 96% 30.22 in 7 mi South 13.4 mph - - Rain Rain
4:25 PM 42.8 °F 36.2 °F 42.8 °F 100% 30.18 in 6.2 mi SSW 12.7 mph - N/A   Overcast
4:55 PM 44.6 °F 38.1 °F 42.8 °F 93% 30.18 in 4.3 mi SSW 13.8 mph - N/A   Mostly Cloudy
5:25 PM 44.6 °F 38.1 °F 42.8 °F 93% 30.18 in - SSW 13.8 mph - N/A   Overcast
6:10 PM 44.6 °F 38.1 °F 44.6 °F 100% 30.18 in 1.6 mi SSW 13.8 mph - N/A Rain Light Rain
6:25 PM 44.6 °F 38.1 °F 44.6 °F 100% 30.18 in 3.1 mi SSW 13.8 mph - N/A   Overcast
7:00 PM 45 °F - 44 °F 96% 30.21 in 4 mi SSW 13.4 mph - - Rain Rain
7:25 PM 44.6 °F 38.4 °F 44.6 °F 100% 30.18 in - SSW 12.7 mph - N/A   Overcast
7:30 PM 44.6 °F 38.4 °F 44.6 °F 100% 30.18 in 3.1 mi SSW 12.7 mph - N/A   Overcast
8:25 PM 46.4 °F 40.4 °F 44.6 °F 93% 30.15 in 5.6 mi SSW 13.8 mph - N/A   Overcast
9:25 PM 46.4 °F 40.4 °F 46.4 °F 100% 30.15 in 6.2 mi SSW 13.8 mph - N/A   Overcast
10:00 PM 47 °F - 46 °F 95% 30.19 in 5 mi SSW 13.4 mph - - Rain Light Rain Showers
10:25 PM 46.4 °F 40.7 °F 46.4 °F 100% 30.15 in - SSW 12.7 mph - N/A Rain Light Rain Showers
11:25 PM 48.2 °F - 46.4 °F 93% 30.15 in 3.1 mi SSW 13.8 mph - N/A   Drizzle
11:45 PM 48.2 °F - 46.4 °F 93% 30.15 in 5.0 mi SSW 15.0 mph - N/A   Drizzle